Terminal Aerodrome Forecast
Issued by NWS Wilmington, OH

Current Version | Previous Version | Graphics & Text | Print | Product List | Glossary On
Versions: 1 2 3 4 5 6 7 8 9 10 11 12 13 14 15 16 17 18 19 20 21
748
FTUS41 KILN 090534
TAFDAY
TAF
KDAY 090534Z 0906/1006 27013KT P6SM OVC040
     FM091500 27012KT P6SM BKN022
     FM100100 27006KT P6SM SCT025=

USA.gov is the U.S. government's official web portal to all federal, state and local government web resources and services.